Fort Benning, AL

9:43 PM CST on February 21, 2018 (GMT -0600)
Lawson Army Air Field

Weather History for KLSF - August, 2014

Change the Weather History Date:

Saturday, August 16, 2014

  Actual Average Record
Temperature  
Mean Temperature 76 °F -  
Max Temperature 91 °F 88 °F 101 °F (2007)
Min Temperature 60 °F 67 °F 60 °F (2014)
Cooling Degree Days 10    
Growing Degree Days 26 (Base 50)    
Moisture  
Dew Point 64 °F    
Average Humidity 89    
Maximum Humidity 100    
Minimum Humidity 39    
Precipitation  
Precipitation 0.00 in - - ()
Sea Level Pressure  
Sea Level Pressure 30.00 in    
Wind  
Wind Speed 2 mph (South)    
Max Wind Speed 8 mph    
Max Gust Speed -    
Visibility 6 miles    
Events Fog    
Averages and records for this station are not official NWS values.
T = Trace of Precipitation, MM = Missing Value Source: NWS Daily Summary

Daily Weather History Graph

Daily Weather History Graph

Search for Another Location

Airport or City:

Trip Planner

Search our weather history database for the weather conditions in past years. The results will help you decide how hot, cold, wet, or windy it might be!

Date:

Astronomy

Aug. 16, 2014 Rise Set
Actual Time 7:04 AM EDT 8:23 PM EDT
Civil Twilight 6:38 AM EDT 8:48 PM EDT
Nautical Twilight 6:08 AM EDT 9:19 PM EDT
Astronomical Twilight 5:36 AM EDT 9:51 PM EDT
Moon No Moon Rise 1:25 PM EDT (8/16)
Length of Visible Light 14h 10m
Length of Day
13h 18m
Waning Gibbous, 59% of the Moon is Illuminated
Aug 16
Waning Gibbous
Aug 17
Last Quarter
Aug 25
New
Sep 2
First Quarter
Sep 8
Full

Hourly Weather History & Observations

Time (EDT) Temp. Heat Index Dew Point Humidity Pressure Visibility Wind Dir Wind Speed Gust Speed Precip Events Conditions
12:33 AM 66.2 °F - 66.2 °F 100% 29.98 in 9.0 mi SSE 2.3 mph - N/A   Clear
12:58 AM 66.4 °F - 65.1 °F 96% 29.99 in 8.0 mi Calm Calm - N/A   Clear
1:03 AM 66.2 °F - 64.4 °F 94% 29.98 in 9.0 mi Calm Calm - N/A   Clear
1:08 AM 66.2 °F - 66.2 °F 100% 29.98 in 3.0 mi Calm Calm - N/A   Clear
1:13 AM 66.2 °F - 66.2 °F 100% 29.98 in 2.5 mi Calm Calm - N/A   Clear
1:18 AM 66.2 °F - 66.2 °F 100% 29.97 in 1.5 mi Calm Calm - N/A   Clear
1:23 AM 66.2 °F - 64.4 °F 94% 29.97 in 1.0 mi Calm Calm - N/A   Clear
1:28 AM 66.2 °F - 64.4 °F 94% 29.97 in 2.0 mi Calm Calm - N/A   Clear
1:33 AM 66.2 °F - 66.2 °F 100% 29.97 in 4.0 mi Calm Calm - N/A   Clear
1:38 AM 66.2 °F - 66.2 °F 100% 29.97 in 1.2 mi Calm Calm - N/A   Clear
1:43 AM 66.2 °F - 66.2 °F 100% 29.98 in 0.5 mi Calm Calm - N/A Fog Fog
1:48 AM 66.2 °F - 64.4 °F 94% 29.98 in 0.5 mi South 2.3 mph - N/A Fog Fog
1:53 AM 64.4 °F - 64.4 °F 100% 29.98 in 1.0 mi SSE 3.5 mph - N/A   Clear
1:58 AM 64.4 °F - 62.6 °F 94% 29.99 in 1.2 mi SE 3.5 mph - N/A   Clear
2:03 AM 64.4 °F - 62.6 °F 94% 29.98 in 1.5 mi SE 2.3 mph - N/A   Clear
2:08 AM 64.4 °F - 64.4 °F 100% 29.98 in 8.0 mi Calm Calm - N/A   Clear
2:28 AM 66.2 °F - 64.4 °F 94% 29.98 in 10.0 mi ESE 1.2 mph - N/A   Clear
2:33 AM 66.2 °F - 64.4 °F 94% 29.98 in 9.0 mi SSE 2.3 mph - N/A   Clear
2:48 AM 64.4 °F - 62.6 °F 94% 29.98 in 10.0 mi SSE 3.5 mph - N/A   Clear
2:53 AM 64.4 °F - 62.6 °F 94% 29.98 in 3.0 mi SSE 3.5 mph - N/A   Clear
2:58 AM 64.4 °F - 62.6 °F 94% 29.99 in 0.8 mi SSE 3.5 mph - N/A   Clear
3:08 AM 64.4 °F - 62.6 °F 94% 29.98 in 2.5 mi SSE 2.3 mph - N/A   Clear
3:13 AM 64.4 °F - 64.4 °F 100% 29.98 in 3.0 mi SSE 2.3 mph - N/A   Clear
3:23 AM 64.4 °F - 62.6 °F 94% 29.98 in 9.0 mi SSE 2.3 mph - N/A   Clear
3:28 AM 64.4 °F - 62.6 °F 94% 29.98 in 10.0 mi SSE 2.3 mph - N/A   Clear
3:53 AM 64.4 °F - 64.4 °F 100% 29.98 in 9.0 mi Calm Calm - N/A   Clear
3:58 AM 64.8 °F - 64.2 °F 98% 29.99 in 9.0 mi Calm Calm - N/A   Clear
4:03 AM 64.4 °F - 62.6 °F 94% 29.98 in 10.0 mi Calm Calm - N/A   Clear
4:23 AM 64.4 °F - 62.6 °F 94% 29.98 in 2.0 mi Calm Calm - N/A   Clear
4:28 AM 64.4 °F - 64.4 °F 100% 29.98 in 0.8 mi Calm Calm - N/A   Clear
4:33 AM 62.6 °F - 62.6 °F 100% 29.98 in 1.0 mi Calm Calm - N/A   Clear
4:38 AM 62.6 °F - 62.6 °F 100% 29.98 in 6.0 mi Calm Calm - N/A   Clear
4:43 AM 64.4 °F - 62.6 °F 94% 29.98 in 10.0 mi Calm Calm - N/A   Clear
4:48 AM 64.4 °F - 62.6 °F 94% 29.98 in 1.5 mi Calm Calm - N/A   Clear
4:53 AM 62.6 °F - 62.6 °F 100% 29.98 in 0.8 mi Calm Calm - N/A   Clear
4:58 AM 62.8 °F - 62.1 °F 97% 29.99 in 0.5 mi Calm Calm - N/A Fog Fog
5:18 AM 62.6 °F - 62.6 °F 100% 29.99 in 3.0 mi SSE 2.3 mph - N/A   Clear
5:23 AM 62.6 °F - 62.6 °F 100% 29.99 in 10.0 mi SSE 2.3 mph - N/A   Clear
5:43 AM 62.6 °F - 62.6 °F 100% 29.99 in 9.0 mi ENE 1.2 mph - N/A   Clear
5:53 AM 62.6 °F - 62.6 °F 100% 30.00 in 1.5 mi Calm Calm - N/A   Clear
5:58 AM 62.6 °F - 62.6 °F 100% 30.01 in 1.2 mi Calm Calm - N/A   Clear
6:03 AM 62.6 °F - 62.6 °F 100% 30.00 in 0.8 mi South 1.2 mph - N/A   Clear
6:08 AM 62.6 °F - 62.6 °F 100% 30.00 in 1.0 mi South 2.3 mph - N/A   Clear
6:13 AM 62.6 °F - 62.6 °F 100% 30.00 in 1.8 mi South 2.3 mph - N/A   Clear
6:23 AM 62.6 °F - 60.8 °F 94% 30.00 in 2.5 mi SE 2.3 mph - N/A   Clear
6:28 AM 62.6 °F - 60.8 °F 94% 30.01 in 2.0 mi SE 2.3 mph - N/A   Clear
6:33 AM 62.6 °F - 60.8 °F 94% 30.01 in 5.0 mi SSE 2.3 mph - N/A   Clear
6:43 AM 60.8 °F - 60.8 °F 100% 30.01 in 10.0 mi SSE 4.6 mph - N/A   Clear
6:58 AM 61.7 °F - 61.2 °F 98% 30.03 in 7.0 mi SSW 6.9 mph - N/A   Clear
7:08 AM 62.6 °F - 62.6 °F 100% 30.03 in 1.5 mi Variable 1.2 mph - N/A   Clear
7:13 AM 62.6 °F - 62.6 °F 100% 30.03 in 2.0 mi South 4.6 mph - N/A   Clear
7:18 AM 62.6 °F - 62.6 °F 100% 30.03 in 4.0 mi SW 3.5 mph - N/A   Clear
7:58 AM 64.8 °F - 64.2 °F 98% 30.04 in 10.0 mi SE 2.3 mph - N/A   Clear
8:58 AM 70.7 °F - 66.6 °F 87% 30.06 in 10.0 mi Calm Calm - N/A   Clear
9:58 AM 77.7 °F - 66.9 °F 69% 30.06 in 10.0 mi Calm Calm - N/A   Clear
10:58 AM 82.8 °F 84.3 °F 64.8 °F 54% 30.06 in 10.0 mi West 3.5 mph - N/A   Clear
11:58 AM 86.7 °F 89.0 °F 65.8 °F 50% 30.06 in 10.0 mi WNW 3.5 mph - N/A   Clear
12:58 PM 87.4 °F 89.5 °F 65.5 °F 48% 30.06 in 10.0 mi Calm Calm - N/A   Partly Cloudy
1:58 PM 89.4 °F 90.5 °F 63.7 °F 42% 30.04 in 10.0 mi Variable 5.8 mph - N/A   Partly Cloudy
2:58 PM 90.3 °F 91.2 °F 63.0 °F 40% 30.02 in 10.0 mi West 5.8 mph - N/A   Clear
3:58 PM 91.2 °F 92.2 °F 63.1 °F 39% 30.01 in 10.0 mi West 8.1 mph - N/A   Clear
4:58 PM 91.2 °F 92.5 °F 63.5 °F 40% 29.99 in 10.0 mi West 6.9 mph - N/A   Clear
5:58 PM 90.3 °F 91.9 °F 64.6 °F 42% 29.99 in 10.0 mi WSW 5.8 mph - N/A   Clear
6:58 PM 88.5 °F 90.5 °F 65.1 °F 46% 30.01 in 10.0 mi SW 5.8 mph - N/A   Clear
7:58 PM 79.9 °F - 70.9 °F 74% 30.01 in 10.0 mi WSW 3.5 mph - N/A   Clear
8:58 PM 73.9 °F - 69.1 °F 85% 30.01 in 10.0 mi Calm Calm - N/A   Clear
9:58 PM 71.8 °F - 68.2 °F 88% 30.03 in 10.0 mi SSW 1.2 mph - 0.00 in   Clear
10:58 PM 70.7 °F - 68.4 °F 92% 30.02 in 10.0 mi Calm Calm - N/A   Clear
11:58 PM 68.0 °F - 66.6 °F 95% 30.02 in 10.0 mi SSE 3.5 mph - N/A   Clear